Location: Czekanka
(50.4925°N, 19.2643°E)
Time: 06:52:46
(UTC+00:00)

SL-16 R/B - Pass Details

Date: 21 September 2024
Orbit: 842 x 846 km, 71.0° (Epoch: 05 October)

Event Time Altitude Azimuth Distance (km) Brightness Sun altitude
Rises 03:37:51 0° 328° (NNW) 3,412 5.1 -8.8°
Reaches altitude 10° 03:40:20 10° 325° (NW) 2,472 4.4 -8.4°
Maximum altitude 03:45:54 60° 247° (WSW) 959 2.2 -7.5°
Drops below altitude 10° 03:51:26 10° 168° (SSE) 2,455 4.7 -6.6°
Sets 03:53:53 0° 165° (SSE) 3,386 5.4 -6.3°
